Location: Sungai Ketit
(2.6833°N, 113.2333°E)
Time: 10:32:09
(UTC+00:00)

Cosmos-2242 - Pass Details

Date: 24 May 2025
Orbit: 569 x 594 km, 82.5° (Epoch: 19 June)

Event Time Altitude Azimuth Distance (km) Brightness Sun altitude
Exits shadow 12:13:27 14° 25° (NNE) 1,691 5.3 -24.4°
Drops below altitude 10° 12:14:03 10° 22° (NNE) 1,920 5.6 -24.5°
Sets 12:16:20 0° 15° (NNE) 2,819 6.6 -25.0°
